Time,TemperatureF,DewpointF,PressureIn,WindDirection,WindDirectionDegrees,WindSpeedMPH,WindSpeedGustMPH,Humidity,HourlyPrecipIn,Conditions,Clouds,dailyrainin,SoftwareType,DateUTC
2013-01-02 00:00:00,38.0,35.0,-100.00,East,91,3.0,-999.0,88,0.00,,,-99.99,,2013-01-02 08:00:00,
2013-01-02 00:22:00,38.0,35.0,-100.00,East,91,3.0,-999.0,88,0.00,,,-99.99,,2013-01-02 08:22:00,
2013-01-02 00:32:00,38.0,35.0,-100.00,East,91,3.0,-999.0,88,0.00,,,-99.99,,2013-01-02 08:32:00,
2013-01-02 00:42:00,38.0,35.0,-100.00,East,91,3.0,-999.0,88,0.00,,,-99.99,,2013-01-02 08:42:00,
2013-01-02 00:53:00,38.0,35.0,-100.00,East,91,3.0,-999.0,88,0.00,,,-99.99,,2013-01-02 08:53:00,
2013-01-02 01:00:00,40.0,36.0,-100.00,NW,324,4.0,-999.0,84,0.00,,,-99.99,,2013-01-02 09:00:00,
2013-01-02 01:22:00,40.0,36.0,-100.00,NW,324,4.0,-999.0,84,0.00,,,-99.99,,2013-01-02 09:22:00,
2013-01-02 01:32:00,40.0,36.0,-100.00,NW,324,4.0,-999.0,84,0.00,,,-99.99,,2013-01-02 09:32:00,
2013-01-02 01:43:00,40.0,36.0,-100.00,NW,324,4.0,-999.0,84,0.00,,,-99.99,,2013-01-02 09:43:00,
2013-01-02 01:52:00,40.0,36.0,-100.00,NW,324,4.0,-999.0,84,0.00,,,-99.99,,2013-01-02 09:52:00,
2013-01-02 02:00:00,38.0,34.0,-100.00,East,96,1.0,-999.0,85,0.00,,,-99.99,,2013-01-02 10:00:00,
2013-01-02 02:22:00,38.0,34.0,-100.00,East,96,1.0,-999.0,85,0.00,,,-99.99,,2013-01-02 10:22:00,
2013-01-02 02:32:00,38.0,34.0,-100.00,East,96,1.0,-999.0,85,0.00,,,-99.99,,2013-01-02 10:32:00,
2013-01-02 02:42:00,38.0,34.0,-100.00,East,96,1.0,-999.0,85,0.00,,,-99.99,,2013-01-02 10:42:00,
2013-01-02 02:52:00,38.0,34.0,-100.00,East,96,1.0,-999.0,85,0.00,,,-99.99,,2013-01-02 10:52:00,
2013-01-02 03:00:00,35.0,32.0,-100.00,East,88,2.0,-999.0,85,0.00,,,-99.99,,2013-01-02 11:00:00,
2013-01-02 03:22:00,35.0,32.0,-100.00,East,88,2.0,-999.0,85,0.00,,,-99.99,,2013-01-02 11:22:00,
2013-01-02 03:33:00,35.0,32.0,-100.00,East,88,2.0,-999.0,85,0.00,,,-99.99,,2013-01-02 11:33:00,
2013-01-02 03:43:00,35.0,32.0,-100.00,East,88,2.0,-999.0,85,0.00,,,-99.99,,2013-01-02 11:43:00,
2013-01-02 03:52:00,35.0,32.0,-100.00,East,88,2.0,-999.0,85,0.00,,,-99.99,,2013-01-02 11:52:00,
2013-01-02 04:00:00,35.0,32.0,-100.00,ENE,73,5.0,-999.0,87,0.00,,,-99.99,,2013-01-02 12:00:00,
2013-01-02 04:22:00,35.0,32.0,-100.00,ENE,73,5.0,-999.0,87,0.00,,,-99.99,,2013-01-02 12:22:00,
2013-01-02 04:33:00,35.0,32.0,-100.00,ENE,73,5.0,-999.0,87,0.00,,,-99.99,,2013-01-02 12:33:00,
2013-01-02 04:43:00,35.0,32.0,-100.00,ENE,73,5.0,-999.0,87,0.00,,,-99.99,,2013-01-02 12:43:00,
2013-01-02 04:53:00,35.0,32.0,-100.00,ENE,73,5.0,-999.0,87,0.00,,,-99.99,,2013-01-02 12:53:00,
2013-01-02 05:00:00,36.0,31.0,-100.00,East,86,3.0,-999.0,84,0.00,,,-99.99,,2013-01-02 13:00:00,
2013-01-02 05:22:00,36.0,31.0,-100.00,East,86,3.0,-999.0,84,0.00,,,-99.99,,2013-01-02 13:22:00,
2013-01-02 05:33:00,36.0,31.0,-100.00,East,86,3.0,-999.0,84,0.00,,,-99.99,,2013-01-02 13:33:00,
2013-01-02 05:43:00,36.0,31.0,-100.00,East,86,3.0,-999.0,84,0.00,,,-99.99,,2013-01-02 13:43:00,
2013-01-02 05:52:00,36.0,31.0,-100.00,East,86,3.0,-999.0,84,0.00,,,-99.99,,2013-01-02 13:52:00,
2013-01-02 09:00:00,37.0,33.0,-100.00,ENE,64,3.0,-999.0,84,0.00,,,-99.99,,2013-01-02 17:00:00,
2013-01-02 09:23:00,37.0,33.0,-100.00,ENE,64,3.0,-999.0,84,0.00,,,-99.99,,2013-01-02 17:23:00,
2013-01-02 09:33:00,37.0,33.0,-100.00,ENE,64,3.0,-999.0,84,0.00,,,-99.99,,2013-01-02 17:33:00,
2013-01-02 09:43:00,37.0,33.0,-100.00,ENE,64,3.0,-999.0,84,0.00,,,-99.99,,2013-01-02 17:43:00,
2013-01-02 09:53:00,37.0,33.0,-100.00,ENE,64,3.0,-999.0,84,0.00,,,-99.99,,2013-01-02 17:53:00,
2013-01-02 10:00:00,49.0,39.0,-100.00,SE,142,4.0,-999.0,68,0.00,,,-99.99,,2013-01-02 18:00:00,
2013-01-02 10:23:00,49.0,39.0,-100.00,SE,142,4.0,-999.0,68,0.00,,,-99.99,,2013-01-02 18:23:00,
2013-01-02 10:33:00,49.0,39.0,-100.00,SE,142,4.0,-999.0,68,0.00,,,-99.99,,2013-01-02 18:33:00,
2013-01-02 10:43:00,49.0,39.0,-100.00,SE,142,4.0,-999.0,68,0.00,,,-99.99,,2013-01-02 18:43:00,
2013-01-02 10:53:00,49.0,39.0,-100.00,SE,142,4.0,-999.0,68,0.00,,,-99.99,,2013-01-02 18:53:00,
2013-01-02 11:00:00,53.0,38.0,-100.00,SSE,160,6.0,-999.0,57,0.00,,,-99.99,,2013-01-02 19:00:00,
2013-01-02 11:23:00,53.0,38.0,-100.00,SSE,160,6.0,-999.0,57,0.00,,,-99.99,,2013-01-02 19:23:00,
2013-01-02 11:33:00,53.0,38.0,-100.00,SSE,160,6.0,-999.0,57,0.00,,,-99.99,,2013-01-02 19:33:00,
2013-01-02 11:43:00,53.0,38.0,-100.00,SSE,160,6.0,-999.0,57,0.00,,,-99.99,,2013-01-02 19:43:00,
2013-01-02 11:52:00,53.0,38.0,-100.00,SSE,160,6.0,-999.0,57,0.00,,,-99.99,,2013-01-02 19:52:00,
2013-01-02 12:00:00,53.0,37.0,-100.00,SSE,166,7.0,-999.0,55,0.00,,,-99.99,,2013-01-02 20:00:00,
2013-01-02 12:23:00,53.0,37.0,-100.00,SSE,166,7.0,-999.0,55,0.00,,,-99.99,,2013-01-02 20:23:00,
2013-01-02 12:33:00,53.0,37.0,-100.00,SSE,166,7.0,-999.0,55,0.00,,,-99.99,,2013-01-02 20:33:00,
2013-01-02 12:42:00,53.0,37.0,-100.00,SSE,166,7.0,-999.0,55,0.00,,,-99.99,,2013-01-02 20:42:00,
2013-01-02 12:53:00,53.0,37.0,-100.00,SSE,166,7.0,-999.0,55,0.00,,,-99.99,,2013-01-02 20:53:00,
2013-01-02 13:00:00,54.0,40.0,-100.00,ESE,118,4.0,-999.0,59,0.00,,,-99.99,,2013-01-02 21:00:00,
2013-01-02 13:23:00,54.0,40.0,-100.00,ESE,118,4.0,-999.0,59,0.00,,,-99.99,,2013-01-02 21:23:00,
2013-01-02 13:33:00,54.0,40.0,-100.00,ESE,118,4.0,-999.0,59,0.00,,,-99.99,,2013-01-02 21:33:00,
2013-01-02 13:43:00,54.0,40.0,-100.00,ESE,118,4.0,-999.0,59,0.00,,,-99.99,,2013-01-02 21:43:00,
2013-01-02 13:53:00,54.0,40.0,-100.00,ESE,118,4.0,-999.0,59,0.00,,,-99.99,,2013-01-02 21:53:00,
2013-01-02 14:00:00,55.0,42.0,-100.00,SSE,159,7.0,-999.0,61,0.00,,,-99.99,,2013-01-02 22:00:00,
2013-01-02 14:22:00,55.0,42.0,-100.00,SSE,159,7.0,-999.0,61,0.00,,,-99.99,,2013-01-02 22:22:00,
2013-01-02 14:32:00,55.0,42.0,-100.00,SSE,159,7.0,-999.0,61,0.00,,,-99.99,,2013-01-02 22:32:00,
2013-01-02 14:43:00,55.0,42.0,-100.00,SSE,159,7.0,-999.0,61,0.00,,,-99.99,,2013-01-02 22:43:00,
2013-01-02 14:52:00,55.0,42.0,-100.00,SSE,159,7.0,-999.0,61,0.00,,,-99.99,,2013-01-02 22:52:00,
2013-01-02 15:00:00,55.0,40.0,-100.00,South,170,11.0,-999.0,56,0.00,,,-99.99,,2013-01-02 23:00:00,
2013-01-02 15:23:00,55.0,40.0,-100.00,South,170,11.0,-999.0,56,0.00,,,-99.99,,2013-01-02 23:23:00,
2013-01-02 15:33:00,55.0,40.0,-100.00,South,170,11.0,-999.0,56,0.00,,,-99.99,,2013-01-02 23:33:00,
2013-01-02 15:43:00,55.0,40.0,-100.00,South,170,11.0,-999.0,56,0.00,,,-99.99,,2013-01-02 23:43:00,
2013-01-02 15:52:00,55.0,40.0,-100.00,South,170,11.0,-999.0,56,0.00,,,-99.99,,2013-01-02 23:52:00,
2013-01-02 16:00:00,56.0,34.0,-100.00,SSE,157,8.0,-999.0,44,0.00,,,-99.99,,2013-01-03 00:00:00,
2013-01-02 16:22:00,56.0,34.0,-100.00,SSE,157,8.0,-999.0,44,0.00,,,-99.99,,2013-01-03 00:22:00,
2013-01-02 16:38:00,56.0,34.0,-100.00,SSE,157,8.0,-999.0,44,0.00,,,-99.99,,2013-01-03 00:38:00,
2013-01-02 16:52:00,56.0,34.0,-100.00,SSE,157,8.0,-999.0,44,0.00,,,-99.99,,2013-01-03 00:52:00,
2013-01-02 17:00:00,53.0,41.0,-100.00,SSE,153,7.0,-999.0,63,0.00,,,-99.99,,2013-01-03 01:00:00,
2013-01-02 17:23:00,53.0,41.0,-100.00,SSE,153,7.0,-999.0,63,0.00,,,-99.99,,2013-01-03 01:23:00,
2013-01-02 17:33:00,53.0,41.0,-100.00,SSE,153,7.0,-999.0,63,0.00,,,-99.99,,2013-01-03 01:33:00,
2013-01-02 17:43:00,53.0,41.0,-100.00,SSE,153,7.0,-999.0,63,0.00,,,-99.99,,2013-01-03 01:43:00,
2013-01-02 17:52:00,53.0,41.0,-100.00,SSE,153,7.0,-999.0,63,0.00,,,-99.99,,2013-01-03 01:52:00,
2013-01-02 18:00:00,51.0,41.0,-100.00,SE,144,3.0,-999.0,67,0.00,,,-99.99,,2013-01-03 02:00:00,
2013-01-02 18:23:00,51.0,41.0,-100.00,SE,144,3.0,-999.0,67,0.00,,,-99.99,,2013-01-03 02:23:00,
2013-01-02 18:33:00,51.0,41.0,-100.00,SE,144,3.0,-999.0,67,0.00,,,-99.99,,2013-01-03 02:33:00,
2013-01-02 18:43:00,51.0,41.0,-100.00,SE,144,3.0,-999.0,67,0.00,,,-99.99,,2013-01-03 02:43:00,
2013-01-02 18:52:00,51.0,41.0,-100.00,SE,144,3.0,-999.0,67,0.00,,,-99.99,,2013-01-03 02:52:00,
2013-01-02 19:00:00,49.0,39.0,-100.00,ESE,120,3.0,-999.0,67,0.00,,,-99.99,,2013-01-03 03:00:00,
2013-01-02 19:22:00,49.0,39.0,-100.00,ESE,120,3.0,-999.0,67,0.00,,,-99.99,,2013-01-03 03:22:00,
2013-01-02 19:47:00,49.0,39.0,-100.00,ESE,120,3.0,-999.0,67,0.00,,,-99.99,,2013-01-03 03:47:00,
2013-01-02 19:52:00,49.0,39.0,-100.00,ESE,120,3.0,-999.0,67,0.00,,,-99.99,,2013-01-03 03:52:00,
2013-01-02 20:00:00,49.0,40.0,-100.00,ESE,113,4.0,-999.0,70,0.00,,,-99.99,,2013-01-03 04:00:00,
2013-01-02 20:22:00,49.0,40.0,-100.00,ESE,113,4.0,-999.0,70,0.00,,,-99.99,,2013-01-03 04:22:00,
2013-01-02 20:32:00,49.0,40.0,-100.00,ESE,113,4.0,-999.0,70,0.00,,,-99.99,,2013-01-03 04:32:00,
2013-01-02 20:42:00,49.0,40.0,-100.00,ESE,113,4.0,-999.0,70,0.00,,,-99.99,,2013-01-03 04:42:00,
2013-01-02 20:52:00,49.0,40.0,-100.00,ESE,113,4.0,-999.0,70,0.00,,,-99.99,,2013-01-03 04:52:00,
2013-01-02 21:00:00,49.0,39.0,-100.00,SSE,147,4.0,-999.0,66,0.00,,,-99.99,,2013-01-03 05:00:00,
2013-01-02 21:33:00,49.0,39.0,-100.00,SSE,147,4.0,-999.0,66,0.00,,,-99.99,,2013-01-03 05:33:00,
2013-01-02 21:42:00,49.0,39.0,-100.00,SSE,147,4.0,-999.0,66,0.00,,,-99.99,,2013-01-03 05:42:00,
2013-01-02 21:52:00,49.0,39.0,-100.00,SSE,147,4.0,-999.0,66,0.00,,,-99.99,,2013-01-03 05:52:00,
2013-01-02 22:00:00,48.0,36.0,-100.00,ESE,114,4.0,-999.0,63,0.00,,,-99.99,,2013-01-03 06:00:00,
2013-01-02 22:22:00,48.0,36.0,-100.00,ESE,114,4.0,-999.0,63,0.00,,,-99.99,,2013-01-03 06:22:00,
2013-01-02 22:33:00,48.0,36.0,-100.00,ESE,114,4.0,-999.0,63,0.00,,,-99.99,,2013-01-03 06:33:00,
2013-01-02 22:42:00,48.0,36.0,-100.00,ESE,114,4.0,-999.0,63,0.00,,,-99.99,,2013-01-03 06:42:00,
2013-01-02 22:52:00,48.0,36.0,-100.00,ESE,114,4.0,-999.0,63,0.00,,,-99.99,,2013-01-03 06:52:00,
2013-01-02 23:00:00,47.0,34.0,-100.00,SSE,154,3.0,-999.0,60,0.00,,,-99.99,,2013-01-03 07:00:00,
2013-01-02 23:22:00,47.0,34.0,-100.00,SSE,154,3.0,-999.0,60,0.00,,,-99.99,,2013-01-03 07:22:00,
2013-01-02 23:33:00,47.0,34.0,-100.00,SSE,154,3.0,-999.0,60,0.00,,,-99.99,,2013-01-03 07:33:00,
2013-01-02 23:43:00,47.0,34.0,-100.00,SSE,154,3.0,-999.0,60,0.00,,,-99.99,,2013-01-03 07:43:00,
2013-01-02 23:52:00,47.0,34.0,-100.00,SSE,154,3.0,-999.0,60,0.00,,,-99.99,,2013-01-03 07:52:00,